Location: Newark
(41.6500°N, 71.4833°W)
Time: 02:08:50
(UTC+00:00)

deb Explorer IX - Pass Details

Date: 28 January 2020
Orbit: 549 x 1099 km, 38.8° (Epoch: 25 February)

Event Time Altitude Azimuth Distance (km) Brightness Sun altitude
Rises 23:19:44 0° 200° (SSW) 3,413 ? -15.7°
Reaches altitude 10° 23:22:56 10° 182° (S) 2,585 ? -16.3°
Maximum altitude 23:27:04 18° 141° (SE) 2,159 ? -17.1°
Enters shadow 23:28:50 17° 122° (ESE) 2,302 ? -17.4°
Drops below altitude 10° 23:31:31 10° 100° (E) 2,819 - -17.9°
Sets 23:35:12 0° 84° (E) 3,843 - -18.6°
